#�ϑ�����,���ϕ���,���ϕ���,�ő啗��,�ő啗����������,�ő�u�ԕ���,�ő�u�ԕ�����������
#(�N����),(m/s)   ,(16����),(m/s)   ,(16����)        ,(m/s)       ,(16����)            
2017/12/30 0:01,1.4,8,1.4,1,3.2,9
2017/12/30 0:02,1.4,9,1.4,4,4.1,9
2017/12/30 0:03,1.4,10,1.4,5,3.2,9
2017/12/30 0:04,1.5,10,1.5,7,3,10
2017/12/30 0:05,1.6,10,1.6,10,3.3,9
2017/12/30 0:06,1.7,10,1.7,10,3.7,9
2017/12/30 0:07,1.8,10,1.8,10,2.6,9
2017/12/30 0:08,1.6,10,1.8,10,2.1,11
2017/12/30 0:09,1.4,10,1.6,10,0.8,10
2017/12/30 0:10,1.3,10,1.4,10,1,6
2017/12/30 0:11,1.3,10,1.3,10,1.3,6
2017/12/30 0:12,1.3,9,1.4,10,2,8
2017/12/30 0:13,1.3,9,1.3,10,2.4,6
2017/12/30 0:14,1.2,8,1.3,10,2.1,6
2017/12/30 0:15,1.2,7,1.2,10,1.6,6
2017/12/30 0:16,1,7,1.1,10,1,9
2017/12/30 0:17,0.9,7,1,10,0.8,11
2017/12/30 0:18,0.9,7,0.9,10,2,13
2017/12/30 0:19,1,6,1,10,2.2,15
2017/12/30 0:20,1.1,5,1.1,9,2.5,1
2017/12/30 0:21,1.3,3,1.3,9,4.1,16
2017/12/30 0:22,1.5,1,1.5,1,5.1,16
2017/12/30 0:23,1.4,15,1.5,1,2.1,14
2017/12/30 0:24,1.3,15,1.4,1,1.1,15
2017/12/30 0:25,1.4,14,1.4,1,2.5,9
2017/12/30 0:26,1.6,14,1.6,14,2.9,10
2017/12/30 0:27,1.7,14,1.7,14,2.7,6
2017/12/30 0:28,1.7,14,1.7,14,2.4,14
2017/12/30 0:29,1.7,14,1.7,14,2,12
2017/12/30 0:30,1.6,14,1.7,14,3.7,16
2017/12/30 0:31,1.5,14,1.6,14,2.2,2
2017/12/30 0:32,1.2,14,1.4,14,1,5
2017/12/30 0:33,1.1,12,1.2,14,0.9,5
2017/12/30 0:34,1.2,11,1.2,14,2.6,10
2017/12/30 0:35,1.2,11,1.2,14,2.2,10
2017/12/30 0:36,1,13,1.1,14,1.4,12
2017/12/30 0:37,1,14,1,14,1.5,1
2017/12/30 0:38,1,15,1,14,1.8,16
2017/12/30 0:39,0.9,1,1,14,1.4,3
2017/12/30 0:40,0.9,1,0.9,14,1.6,1
2017/12/30 0:41,0.8,1,0.9,14,1.4,12
2017/12/30 0:42,0.9,16,0.9,14,2.1,3
2017/12/30 0:43,1,16,1,12,2.2,2
2017/12/30 0:44,1,16,1,11,1.8,16
2017/12/30 0:45,1,1,1,11,1.6,15
2017/12/30 0:46,1,1,1,13,2,1
2017/12/30 0:47,1.1,1,1.1,1,3.1,4
2017/12/30 0:48,1.3,1,1.3,1,3,4
2017/12/30 0:49,1.3,2,1.3,1,2.2,5
2017/12/30 0:50,1.3,3,1.3,1,1.4,6
2017/12/30 0:51,1.3,3,1.3,1,0.8,7
2017/12/30 0:52,1.2,3,1.3,1,0.4,10
2017/12/30 0:53,1.1,4,1.1,1,1.9,8
2017/12/30 0:54,1.2,6,1.2,1,3.7,9
2017/12/30 0:55,1.2,7,1.2,1,3.7,9
2017/12/30 0:56,1.2,7,1.2,1,2.5,10
2017/12/30 0:57,1.1,7,1.2,1,1.1,3
2017/12/30 0:58,0.9,8,1,1,0.9,14
2017/12/30 0:59,0.8,9,0.9,2,1,14
2017/12/30 1:00,0.7,10,0.8,3,0.6,13
2017/12/30 1:01,0.8,10,0.8,3,2.7,8
2017/12/30 1:02,1,10,1,5,2.9,8
2017/12/30 1:03,1,10,1,5,3.7,9
2017/12/30 1:04,1,10,1,6,2.2,10
2017/12/30 1:05,0.9,10,1,7,2.4,9
2017/12/30 1:06,0.9,9,0.9,7,2.1,10
2017/12/30 1:07,0.8,10,0.8,7,0.8,13
2017/12/30 1:08,0.8,9,0.8,10,1,2
2017/12/30 1:09,0.8,9,0.8,10,1.3,4
2017/12/30 1:10,0.9,8,0.9,10,1.5,4
2017/12/30 1:11,0.8,7,0.9,10,1.3,4
2017/12/30 1:12,0.7,7,0.8,10,1,7
2017/12/30 1:13,0.6,6,0.6,10,0.8,4
2017/12/30 1:14,0.5,5,0.6,10,1,4
2017/12/30 1:15,0.5,4,0.5,10,2,4
2017/12/30 1:16,0.7,4,0.7,8,3.3,3
2017/12/30 1:17,0.9,4,0.9,8,3.9,3
2017/12/30 1:18,1.1,4,1.1,4,4.7,4
2017/12/30 1:19,1.2,4,1.2,4,2.5,5
2017/12/30 1:20,1.3,4,1.3,4,2.5,4
2017/12/30 1:21,1.4,4,1.4,4,5.1,2
2017/12/30 1:22,1.6,4,1.6,4,3.7,2
2017/12/30 1:23,1.7,4,1.7,4,2.6,1
2017/12/30 1:24,1.9,4,1.9,4,6,16
2017/12/30 1:25,2.1,3,2.1,3,5.8,14
2017/12/30 1:26,2,3,2.1,3,2.7,15
2017/12/30 1:27,1.9,3,2,3,2.7,5
2017/12/30 1:28,2,2,2,3,4.7,15
2017/12/30 1:29,2,1,2,3,5.4,16
2017/12/30 1:30,2,1,2.1,3,3.5,14
2017/12/30 1:31,2.1,1,2.1,3,4.7,1
2017/12/30 1:32,2.1,1,2.1,3,3.9,16
2017/12/30 1:33,2.4,16,2.4,16,6.1,15
2017/12/30 1:34,2.6,16,2.6,16,6.7,16
2017/12/30 1:35,2.6,16,2.6,16,6.3,16
2017/12/30 1:36,2.8,1,2.8,1,6.3,1
2017/12/30 1:37,3,16,3,16,3.6,14
2017/12/30 1:38,2.8,16,3,16,3.6,12
2017/12/30 1:39,2.7,16,2.8,16,2.2,7
2017/12/30 1:40,2.6,16,2.7,16,1.4,9
2017/12/30 1:41,2.4,15,2.6,16,1.6,12
2017/12/30 1:42,2.4,15,2.4,16,3.5,12
2017/12/30 1:43,2.1,15,2.4,16,3.2,16
2017/12/30 1:44,1.8,14,2.1,16,2.6,12
2017/12/30 1:45,1.5,14,1.8,16,1.9,14
2017/12/30 1:46,1.5,14,1.5,16,5.1,15
2017/12/30 1:47,1.5,13,1.6,16,4.2,14
2017/12/30 1:48,1.6,13,1.6,16,3.3,12
2017/12/30 1:49,1.9,14,1.9,16,5.8,16
2017/12/30 1:50,2.1,14,2.1,16,5,15
2017/12/30 1:51,2.2,14,2.2,15,4.4,16
2017/12/30 1:52,2.3,14,2.4,15,6.1,12
2017/12/30 1:53,2.5,14,2.5,14,4.3,16
2017/12/30 1:54,2.7,14,2.7,14,6,1
2017/12/30 1:55,3,14,3,14,7.6,12
2017/12/30 1:56,3,14,3.1,14,8.2,11
2017/12/30 1:57,2.9,13,3,14,4.7,9
2017/12/30 1:58,2.9,13,2.9,14,2.6,14
2017/12/30 1:59,2.6,13,2.9,14,2,14
2017/12/30 2:00,2.5,13,2.6,14,2.2,15
2017/12/30 2:01,2.3,13,2.5,14,1.4,11
2017/12/30 2:02,2.1,13,2.3,14,3.9,15
2017/12/30 2:03,2.3,13,2.3,14,7,15
2017/12/30 2:04,2.5,13,2.5,14,7.5,16
2017/12/30 2:05,2.4,14,2.6,14,6.8,15
2017/12/30 2:06,2.2,14,2.4,14,3.1,15
2017/12/30 2:07,2.2,14,2.2,13,2,13
2017/12/30 2:08,2.1,15,2.2,13,1.6,16
2017/12/30 2:09,2.1,15,2.1,13,1.9,5
2017/12/30 2:10,2.1,15,2.1,13,2.2,4
2017/12/30 2:11,2.1,15,2.1,13,2.5,10
2017/12/30 2:12,2,15,2.1,13,1.4,11
2017/12/30 2:13,1.7,15,2,13,1.5,2
2017/12/30 2:14,1.2,15,1.6,13,1.3,16
2017/12/30 2:15,1,15,1.1,14,3.5,14
2017/12/30 2:16,0.9,15,0.9,14,2,12
2017/12/30 2:17,0.9,1,0.9,14,1.8,3
2017/12/30 2:18,0.9,1,0.9,15,1.4,4
2017/12/30 2:19,0.8,16,0.9,15,1,16
2017/12/30 2:20,0.8,15,0.9,15,1.8,10
2017/12/30 2:21,0.7,1,0.8,15,1.1,2
2017/12/30 2:22,0.8,2,0.8,15,1.4,4
2017/12/30 2:23,0.8,3,0.8,15,1.8,4
2017/12/30 2:24,0.9,4,0.9,15,2.2,15
2017/12/30 2:25,0.9,3,0.9,15,3.9,15
2017/12/30 2:26,1.1,3,1.1,3,5.7,16
2017/12/30 2:27,1.5,2,1.5,2,7.9,16
2017/12/30 2:28,1.8,1,1.8,1,6.8,16
2017/12/30 2:29,2.2,1,2.2,1,7.6,16
2017/12/30 2:30,2.5,1,2.5,1,5.7,14
2017/12/30 2:31,2.8,1,2.8,1,6.8,16
2017/12/30 2:32,3,16,3,16,5.8,16
2017/12/30 2:33,3.1,16,3.1,16,3.5,16
2017/12/30 2:34,3.2,16,3.2,16,4.7,16
2017/12/30 2:35,3.5,16,3.5,16,6.2,16
2017/12/30 2:36,3.7,16,3.7,16,7.5,14
2017/12/30 2:37,3.5,16,3.7,16,5.2,16
2017/12/30 2:38,3.5,16,3.6,16,5.4,16
2017/12/30 2:39,3.5,16,3.5,16,8.6,16
2017/12/30 2:40,3.4,16,3.5,16,8.1,15
2017/12/30 2:41,3.8,16,3.8,16,9.1,1
2017/12/30 2:42,3.9,16,3.9,16,9.4,1
2017/12/30 2:43,4,16,4,16,7.8,1
2017/12/30 2:44,4.1,16,4.1,16,7,1
2017/12/30 2:45,4,16,4.2,16,5.7,16
2017/12/30 2:46,4,16,4,16,8.6,16
2017/12/30 2:47,4.3,16,4.3,16,10.6,15
2017/12/30 2:48,4.7,16,4.7,16,10.1,16
2017/12/30 2:49,4.8,16,4.8,16,12.8,16
2017/12/30 2:50,5.2,16,5.2,16,11.8,15
2017/12/30 2:51,5.3,16,5.3,16,10.1,15
2017/12/30 2:52,5.3,16,5.3,16,9.2,1
2017/12/30 2:53,5.5,16,5.5,16,10.5,15
2017/12/30 2:54,5.7,16,5.7,16,9.4,15
2017/12/30 2:55,6,16,6,16,7.6,16
2017/12/30 2:56,6.2,16,6.3,16,10.7,2
2017/12/30 2:57,6.3,16,6.3,16,14.5,15
2017/12/30 2:58,6.2,16,6.5,16,14,16
2017/12/30 2:59,5.8,16,6.1,16,5.7,16
2017/12/30 3:00,5.4,16,5.7,16,6.2,15
2017/12/30 3:01,5.2,16,5.4,16,5.8,1
2017/12/30 3:02,4.9,16,5.2,16,4.8,2
2017/12/30 3:03,4.8,16,4.9,16,6.4,16
2017/12/30 3:04,4.6,16,4.8,16,6.5,15
2017/12/30 3:05,4.2,15,4.5,16,3.6,11
2017/12/30 3:06,3.6,15,4.1,16,1.9,10
2017/12/30 3:07,2.9,15,3.5,16,1.5,13
2017/12/30 3:08,2.7,15,2.8,16,3.6,16
2017/12/30 3:09,2.5,15,2.7,16,3,15
2017/12/30 3:10,2.6,14,2.6,16,6.9,16
2017/12/30 3:11,2.5,14,2.6,16,5.8,14
2017/12/30 3:12,2.6,14,2.6,16,5.8,13
2017/12/30 3:13,2.5,14,2.6,16,5.8,15
2017/12/30 3:14,2.3,14,2.5,16,3.5,16
2017/12/30 3:15,2.3,14,2.3,15,2.9,12
2017/12/30 3:16,2.5,14,2.5,15,6.1,9
2017/12/30 3:17,2.7,13,2.7,15,6.8,10
2017/12/30 3:18,2.9,13,3,13,9.3,9
2017/12/30 3:19,3,12,3,13,3.9,10
2017/12/30 3:20,2.7,12,3,13,4.3,9
2017/12/30 3:21,2.7,12,2.8,13,4.2,15
2017/12/30 3:22,2.6,12,2.7,13,4.3,16
2017/12/30 3:23,2.5,12,2.6,13,3.7,16
2017/12/30 3:24,2.5,12,2.5,13,2.9,13
2017/12/30 3:25,2.4,11,2.5,13,3.1,10
2017/12/30 3:26,2.2,11,2.4,13,1.6,7
2017/12/30 3:27,1.9,12,2.1,13,1.5,14
2017/12/30 3:28,1.5,13,1.9,13,1.3,10
2017/12/30 3:29,1.7,13,1.7,12,4.1,15
2017/12/30 3:30,1.8,13,1.8,12,4.8,14
2017/12/30 3:31,1.7,13,1.8,12,3,15
2017/12/30 3:32,1.8,14,1.8,12,5.7,16
2017/12/30 3:33,1.9,14,1.9,12,5.8,15
2017/12/30 3:34,2,15,2,12,5.4,15
2017/12/30 3:35,2,15,2,11,3,16
2017/12/30 3:36,2.1,15,2.1,11,3.2,15
2017/12/30 3:37,2.2,15,2.2,15,3.5,15
2017/12/30 3:38,2.2,15,2.2,15,1.6,11
2017/12/30 3:39,2.2,15,2.3,15,4.8,13
2017/12/30 3:40,2.1,15,2.2,15,3.7,14
2017/12/30 3:41,2,15,2.1,15,1.8,16
2017/12/30 3:42,1.8,15,2,15,3.5,15
2017/12/30 3:43,1.6,15,1.8,15,4.2,14
2017/12/30 3:44,1.6,15,1.6,15,4.4,15
2017/12/30 3:45,1.7,15,1.8,15,4.9,1
2017/12/30 3:46,1.9,15,1.9,15,7.5,16
2017/12/30 3:47,2,15,2,15,6,14
2017/12/30 3:48,2.2,15,2.2,15,3.8,15
2017/12/30 3:49,2.3,15,2.3,15,7.5,16
2017/12/30 3:50,2.7,15,2.7,15,8.7,16
2017/12/30 3:51,2.8,15,2.8,15,5,15
2017/12/30 3:52,3,15,3,15,5.2,14
2017/12/30 3:53,3.2,15,3.2,15,4.2,14
2017/12/30 3:54,3.2,15,3.2,15,3.3,13
2017/12/30 3:55,3.1,15,3.1,15,3.9,14
2017/12/30 3:56,3.1,14,3.1,15,5.8,12
2017/12/30 3:57,3,14,3.1,15,5.4,12
2017/12/30 3:58,3,13,3,15,3.2,12
2017/12/30 3:59,2.7,13,3,15,3.1,10
2017/12/30 4:00,2.4,12,2.7,15,4.1,10
2017/12/30 4:01,2.3,12,2.4,15,3,12
2017/12/30 4:02,2.1,12,2.3,15,2.6,12
2017/12/30 4:03,2,11,2.1,15,2.7,11
2017/12/30 4:04,1.9,11,2,15,2.2,9
2017/12/30 4:05,1.8,11,1.9,14,2.5,10
2017/12/30 4:06,1.7,11,1.8,14,2.7,13
2017/12/30 4:07,1.7,11,1.7,14,3.3,12
2017/12/30 4:08,1.7,11,1.8,13,3.1,16
2017/12/30 4:09,1.8,12,1.8,13,3.5,16
2017/12/30 4:10,1.8,12,1.8,12,2.5,15
2017/12/30 4:11,1.7,13,1.8,12,1.5,16
2017/12/30 4:12,1.6,13,1.7,12,0.9,16
2017/12/30 4:13,1.4,13,1.6,11,0.5,12
2017/12/30 4:14,1.4,13,1.4,11,1,13
2017/12/30 4:15,1.3,13,1.4,11,1,12
2017/12/30 4:16,1.2,14,1.2,11,3,14
2017/12/30 4:17,1,14,1.2,11,2.4,14
2017/12/30 4:18,0.9,13,1,12,1.6,10
2017/12/30 4:19,0.9,13,0.9,12,3.2,11
2017/12/30 4:20,0.9,12,0.9,12,3.1,10
2017/12/30 4:21,0.9,12,0.9,13,2.2,4
2017/12/30 4:22,1,12,1,13,3.3,14
2017/12/30 4:23,1.1,12,1.1,13,2.2,13
2017/12/30 4:24,1.1,12,1.1,13,0.9,4
2017/12/30 4:25,1.2,12,1.2,13,3.3,15
2017/12/30 4:26,1.3,13,1.3,13,5.2,16
2017/12/30 4:27,1.5,13,1.5,13,4.7,14
2017/12/30 4:28,1.6,13,1.6,13,4.2,14
2017/12/30 4:29,1.7,13,1.7,13,3.8,12
2017/12/30 4:30,1.9,13,1.9,14,4.4,12
2017/12/30 4:31,2.1,13,2.1,13,3.8,12
2017/12/30 4:32,2.1,13,2.2,13,3.3,13
2017/12/30 4:33,2.2,13,2.2,13,2.6,11
2017/12/30 4:34,2.4,13,2.4,13,3.1,13
2017/12/30 4:35,2.4,13,2.4,13,4.3,6
2017/12/30 4:36,2.6,13,2.6,13,6.1,13
2017/12/30 4:37,2.7,13,2.7,13,5.4,16
2017/12/30 4:38,2.7,13,2.7,13,4.7,15
2017/12/30 4:39,2.5,13,2.7,13,3.7,15
2017/12/30 4:40,2.2,14,2.4,13,1.8,14
2017/12/30 4:41,2.1,14,2.2,13,2.6,14
2017/12/30 4:42,2,14,2.1,13,1.9,13
2017/12/30 4:43,2,14,2,13,3.5,1
2017/12/30 4:44,2.2,14,2.2,13,6.2,16
2017/12/30 4:45,2.3,14,2.3,13,4.7,15
2017/12/30 4:46,2,14,2.3,13,1.6,14
2017/12/30 4:47,1.6,14,1.9,13,1,13
2017/12/30 4:48,1.4,14,1.6,13,1.1,8
2017/12/30 4:49,1.3,14,1.3,13,1,1
2017/12/30 4:50,1.3,15,1.3,14,0.8,1
2017/12/30 4:51,1.3,15,1.3,14,3.3,16
2017/12/30 4:52,1.5,16,1.5,14,5.2,15
2017/12/30 4:53,1.5,16,1.5,14,2.4,16
2017/12/30 4:54,1.2,16,1.4,14,3.7,14
2017/12/30 4:55,1.1,15,1.2,14,2.4,12
2017/12/30 4:56,1.2,15,1.2,14,3.5,11
2017/12/30 4:57,1.4,15,1.4,14,3.5,9
2017/12/30 4:58,1.5,15,1.5,16,2.7,12
2017/12/30 4:59,1.8,14,1.8,14,3.7,13
2017/12/30 5:00,2,14,2,14,3,14
2017/12/30 5:01,2,13,2,14,2.7,14
2017/12/30 5:02,1.9,13,2,14,3.8,16
2017/12/30 5:03,1.9,13,1.9,14,2.4,15
2017/12/30 5:04,1.9,13,1.9,14,2.7,13
2017/12/30 5:05,1.9,13,1.9,14,2.6,11
2017/12/30 5:06,1.9,13,1.9,14,4.7,15
2017/12/30 5:07,2,13,2,14,3.7,15
2017/12/30 5:08,2.2,13,2.2,13,8.4,13
2017/12/30 5:09,2.3,14,2.3,13,7.2,13
2017/12/30 5:10,2.5,14,2.5,14,6.1,13
2017/12/30 5:11,2.5,14,2.5,14,6,15
2017/12/30 5:12,2.5,14,2.5,14,5.7,13
2017/12/30 5:13,2.6,14,2.6,14,3.8,1
2017/12/30 5:14,2.6,14,2.6,14,2.4,15
2017/12/30 5:15,2.8,14,2.8,14,3.3,13
2017/12/30 5:16,2.7,14,2.8,14,5.4,13
2017/12/30 5:17,2.9,14,2.9,14,5.2,15
2017/12/30 5:18,3,14,3,14,7.5,16
2017/12/30 5:19,3,14,3,14,7.2,15
2017/12/30 5:20,2.9,14,3,14,5.6,15
2017/12/30 5:21,2.8,14,2.9,14,3.3,15
2017/12/30 5:22,2.7,14,2.8,14,2.7,15
2017/12/30 5:23,2.7,14,2.7,14,4.4,1
2017/12/30 5:24,2.8,15,2.8,14,4.7,15
2017/12/30 5:25,3,15,3,14,6.9,14
2017/12/30 5:26,3.2,15,3.2,15,7.2,14
2017/12/30 5:27,3.2,15,3.2,15,5.6,15
2017/12/30 5:28,3.1,15,3.2,15,6.7,16
2017/12/30 5:29,3.2,15,3.2,15,7.6,15
2017/12/30 5:30,3.4,15,3.4,15,7.6,15
2017/12/30 5:31,3.5,15,3.5,15,2.9,15
2017/12/30 5:32,3.5,15,3.5,15,3.8,1
2017/12/30 5:33,3.4,15,3.5,15,3,12
2017/12/30 5:34,3.2,15,3.4,15,1.8,16
2017/12/30 5:35,3,15,3.2,15,2.9,14
2017/12/30 5:36,3,15,3,15,7.2,14
2017/12/30 5:37,2.7,14,3,15,4.1,16
2017/12/30 5:38,2.3,14,2.6,15,1.8,16
2017/12/30 5:39,1.9,15,2.2,15,4.2,16
2017/12/30 5:40,1.5,15,1.9,15,1.8,7
2017/12/30 5:41,1.7,15,1.7,15,5.1,14
2017/12/30 5:42,1.8,15,1.8,15,5.4,13
2017/12/30 5:43,2.1,14,2.1,15,7.1,12
2017/12/30 5:44,2.4,15,2.4,15,6,16
2017/12/30 5:45,2.6,15,2.6,15,5.5,14
2017/12/30 5:46,2.5,15,2.6,15,4.5,16
2017/12/30 5:47,2.8,15,2.8,15,5.4,1
2017/12/30 5:48,3,15,3,15,4.2,16
2017/12/30 5:49,2.8,14,3,15,3.5,13
2017/12/30 5:50,3.1,14,3.1,14,4.9,13
2017/12/30 5:51,3,14,3.1,14,5.6,13
2017/12/30 5:52,3.1,14,3.1,14,6.4,14
2017/12/30 5:53,3,14,3.1,14,6.2,16
2017/12/30 5:54,3,14,3,14,6.9,15
2017/12/30 5:55,2.9,15,3,14,5.1,16
2017/12/30 5:56,3,14,3,14,7.1,14
2017/12/30 5:57,3,14,3,14,6.8,14
2017/12/30 5:58,3.1,15,3.1,14,5.6,16
2017/12/30 5:59,3.4,15,3.4,15,5.8,16
2017/12/30 6:00,3.4,15,3.5,15,6.7,15
2017/12/30 6:01,3.4,15,3.4,15,3,14
2017/12/30 6:02,3.5,15,3.5,15,9.2,15
2017/12/30 6:03,3.6,15,3.6,15,6.2,16
2017/12/30 6:04,3.5,15,3.6,15,5.8,15
2017/12/30 6:05,3.4,15,3.5,15,3.3,1
2017/12/30 6:06,3.3,15,3.4,15,5.7,15
2017/12/30 6:07,3.3,15,3.4,15,4.7,15
2017/12/30 6:08,3.3,15,3.3,15,4.9,14
2017/12/30 6:09,3.2,15,3.3,15,5.6,16
2017/12/30 6:10,3.2,15,3.2,15,5.1,16
2017/12/30 6:11,3.2,15,3.2,15,5.1,15
2017/12/30 6:12,2.9,15,3.2,15,4.1,15
2017/12/30 6:13,2.8,15,2.9,15,3.6,16
2017/12/30 6:14,2.7,15,2.8,15,3.3,12
2017/12/30 6:15,2.7,15,2.7,15,2.7,14
2017/12/30 6:16,2.6,15,2.7,15,3.3,12
2017/12/30 6:17,2.4,14,2.5,15,3.2,14
2017/12/30 6:18,2.4,14,2.4,15,4.4,14
2017/12/30 6:19,2.4,14,2.4,15,6.8,15
2017/12/30 6:20,2.5,14,2.5,15,6.2,15
2017/12/30 6:21,2.3,14,2.4,15,3.7,15
2017/12/30 6:22,2.3,14,2.4,15,4.4,14
2017/12/30 6:23,2.3,14,2.4,15,3.5,16
2017/12/30 6:24,2.2,14,2.3,15,1.6,14
2017/12/30 6:25,2.2,15,2.2,15,2,15
2017/12/30 6:26,2.1,15,2.2,14,1.8,14
2017/12/30 6:27,2.2,15,2.2,14,3.6,14
2017/12/30 6:28,2.1,15,2.1,14,3.6,14
2017/12/30 6:29,1.9,15,2.1,14,3.9,16
2017/12/30 6:30,1.8,15,1.9,14,3.5,16
2017/12/30 6:31,1.8,15,1.8,14,1.5,16
2017/12/30 6:32,1.8,15,1.8,14,6.4,16
2017/12/30 6:33,1.8,15,1.8,14,4.4,14
2017/12/30 6:34,1.9,15,1.9,14,4.3,14
2017/12/30 6:35,2,15,2,15,3.5,15
2017/12/30 6:36,2.2,15,2.2,15,5.7,15
2017/12/30 6:37,2.2,15,2.2,15,2.9,13
2017/12/30 6:38,2,15,2.2,15,1.6,10
2017/12/30 6:39,1.8,15,2,15,1.5,10
2017/12/30 6:40,1.6,14,1.8,15,1.1,4
2017/12/30 6:41,1.7,14,1.7,15,2.1,6
2017/12/30 6:42,1.5,13,1.7,15,2,6
2017/12/30 6:43,1.4,12,1.5,15,1.3,6
2017/12/30 6:44,1.3,8,1.3,15,2,8
2017/12/30 6:45,1.2,8,1.3,15,2.1,7
2017/12/30 6:46,1,8,1.2,15,2.2,8
2017/12/30 6:47,1,7,1,15,2.4,8
2017/12/30 6:48,1.1,7,1.1,15,1.6,6
2017/12/30 6:49,1.2,7,1.2,15,2.2,6
2017/12/30 6:50,1.3,7,1.3,14,2.6,6
2017/12/30 6:51,1.3,7,1.3,14,1.8,8
2017/12/30 6:52,1.3,7,1.3,13,2.4,7
2017/12/30 6:53,1.5,7,1.5,7,3.1,8
2017/12/30 6:54,1.6,7,1.6,7,3.5,8
2017/12/30 6:55,1.6,7,1.6,7,2.6,8
2017/12/30 6:56,1.6,8,1.6,7,2.2,12
2017/12/30 6:57,1.5,8,1.6,7,2.2,12
2017/12/30 6:58,1.4,8,1.5,7,1.8,9
2017/12/30 6:59,1.4,9,1.4,7,3.1,10
2017/12/30 7:00,1.5,9,1.5,7,3.3,9
2017/12/30 7:01,1.6,9,1.6,7,2.6,9
2017/12/30 7:02,1.5,9,1.6,7,1.8,9
2017/12/30 7:03,1.4,10,1.5,7,3.2,9
2017/12/30 7:04,1.3,10,1.4,7,2.4,9
2017/12/30 7:05,1.3,10,1.3,7,3,9
2017/12/30 7:06,1.4,9,1.4,8,3.2,10
2017/12/30 7:07,1.5,9,1.5,9,3,10
2017/12/30 7:08,1.8,9,1.8,9,4.5,11
2017/12/30 7:09,1.7,9,1.8,9,2.9,11
2017/12/30 7:10,1.6,9,1.7,9,2.1,8
2017/12/30 7:11,1.6,9,1.6,9,2.4,6
2017/12/30 7:12,1.6,9,1.6,9,1.8,6
2017/12/30 7:13,1.7,9,1.7,9,4.2,14
2017/12/30 7:14,1.8,10,1.8,9,4.9,16
2017/12/30 7:15,1.8,11,1.8,9,4.4,15
2017/12/30 7:16,2,13,2,13,6,16
2017/12/30 7:17,2,15,2,13,3.9,16
2017/12/30 7:18,1.8,15,2,13,3.7,16
2017/12/30 7:19,2.1,16,2.1,16,5.2,14
2017/12/30 7:20,2.2,16,2.2,16,7.2,16
2017/12/30 7:21,2.3,15,2.3,16,5.2,14
2017/12/30 7:22,2.3,15,2.3,16,3,12
2017/12/30 7:23,2.3,15,2.4,15,3.3,15
2017/12/30 7:24,2.2,15,2.3,15,3.8,13
2017/12/30 7:25,2.2,15,2.2,15,3.2,14
2017/12/30 7:26,2.1,15,2.2,15,6.4,1
2017/12/30 7:27,2.3,15,2.3,15,6.2,16
2017/12/30 7:28,2.4,15,2.4,15,3.2,1
2017/12/30 7:29,2.3,15,2.4,15,5.6,1
2017/12/30 7:30,2.4,15,2.5,15,6.5,16
2017/12/30 7:31,2.5,15,2.5,15,3.5,15
2017/12/30 7:32,2.6,15,2.6,15,3.3,16
2017/12/30 7:33,2.6,16,2.6,15,3.2,1
2017/12/30 7:34,2.6,16,2.6,15,3.1,1
2017/12/30 7:35,2.6,16,2.6,15,1.9,2
2017/12/30 7:36,2.4,16,2.6,15,2,16
2017/12/30 7:37,2.1,16,2.3,15,3.2,3
2017/12/30 7:38,2.2,16,2.2,15,5.8,15
2017/12/30 7:39,2.2,16,2.2,15,3.5,11
2017/12/30 7:40,1.8,16,2.1,15,1.4,10
2017/12/30 7:41,1.8,15,1.8,15,5.8,14
2017/12/30 7:42,1.9,15,1.9,15,6.1,15
2017/12/30 7:43,1.8,15,1.9,16,2.7,14
2017/12/30 7:44,2,15,2,16,7.2,16
2017/12/30 7:45,2.3,14,2.3,16,6.9,15
2017/12/30 7:46,2.5,14,2.5,14,5.6,16
2017/12/30 7:47,2.7,14,2.7,14,5,14
2017/12/30 7:48,2.8,14,2.8,14,6.1,15
2017/12/30 7:49,2.8,14,2.8,14,4.2,14
2017/12/30 7:50,3,15,3,15,4.2,16
2017/12/30 7:51,3,15,3,15,4.8,14
2017/12/30 7:52,3,15,3,15,6.3,14
2017/12/30 7:53,3.3,15,3.3,15,6.3,16
2017/12/30 7:54,3.6,15,3.6,15,9.1,15
2017/12/30 7:55,3.4,15,3.6,15,4.5,15
2017/12/30 7:56,3.6,15,3.6,15,8.3,15
2017/12/30 7:57,3.8,15,3.8,15,8.1,15
2017/12/30 7:58,3.8,15,3.8,15,9,15
2017/12/30 7:59,4.2,15,4.2,15,10.3,15
2017/12/30 8:00,4.2,15,4.2,15,5.5,1
2017/12/30 8:01,4.3,15,4.3,15,5.6,16
2017/12/30 8:02,4.4,15,4.4,15,8.1,16
2017/12/30 8:03,4.3,15,4.4,15,6.7,15
2017/12/30 8:04,4,15,4.3,15,5.5,16
2017/12/30 8:05,4.3,15,4.3,15,7.8,16
2017/12/30 8:06,4.1,15,4.3,15,4.8,15
2017/12/30 8:07,4,15,4.1,15,8.1,15
2017/12/30 8:08,4,15,4,15,8.9,15
2017/12/30 8:09,4,15,4.1,15,10.5,15
2017/12/30 8:10,4.2,15,4.2,15,7.9,15
2017/12/30 8:11,4.2,15,4.2,15,5.1,16
2017/12/30 8:12,4.1,15,4.2,15,6.5,1
2017/12/30 8:13,4.2,15,4.2,15,7.4,15
2017/12/30 8:14,4.5,15,4.5,15,7.9,15
2017/12/30 8:15,4.5,15,4.5,15,7.7,16
2017/12/30 8:16,4.6,15,4.6,15,5.2,16
2017/12/30 8:17,4.5,16,4.6,15,5.6,15
2017/12/30 8:18,4.2,16,4.4,15,3.6,16
2017/12/30 8:19,3.8,16,4.1,15,3.9,16
2017/12/30 8:20,3.7,16,3.8,15,4.9,1
2017/12/30 8:21,3.7,16,3.7,15,5.6,16
2017/12/30 8:22,3.9,15,3.9,15,9.2,14
2017/12/30 8:23,4,15,4,15,8.4,14
2017/12/30 8:24,3.9,15,4,15,6.5,14
2017/12/30 8:25,3.6,15,3.8,15,4.8,15
2017/12/30 8:26,3.6,15,3.6,15,4.5,14
2017/12/30 8:27,3.5,15,3.6,16,3.5,12
2017/12/30 8:28,3.5,15,3.6,16,3.8,1
2017/12/30 8:29,3.5,15,3.6,15,2.5,16
2017/12/30 8:30,3.5,15,3.5,15,5,14
2017/12/30 8:31,3.5,15,3.6,15,5.7,16
2017/12/30 8:32,3.1,15,3.5,15,3.8,15
2017/12/30 8:33,2.8,15,3.1,15,4.3,16
2017/12/30 8:34,2.7,15,2.8,15,5.2,16
2017/12/30 8:35,2.7,15,2.7,15,5.2,15
2017/12/30 8:36,2.8,15,2.8,15,5.6,15
2017/12/30 8:37,3,15,3,15,10.6,15
2017/12/30 8:38,3.3,15,3.3,15,8.9,14
2017/12/30 8:39,3.5,15,3.5,15,5.4,16
2017/12/30 8:40,3.6,15,3.6,15,7.2,16
2017/12/30 8:41,3.5,15,3.6,15,4.1,16
2017/12/30 8:42,3.7,15,3.7,15,5.7,14
2017/12/30 8:43,4,15,4,15,7.8,15
2017/12/30 8:44,3.9,15,4,15,5.4,15
2017/12/30 8:45,3.9,15,3.9,15,6.1,15
2017/12/30 8:46,3.8,16,3.9,15,4.2,15
2017/12/30 8:47,3.6,16,3.8,15,4.9,16
2017/12/30 8:48,3.3,16,3.6,15,4.5,16
2017/12/30 8:49,3.1,16,3.2,15,3.3,16
2017/12/30 8:50,2.9,16,3.1,15,4.9,15
2017/12/30 8:51,2.9,16,2.9,15,4.1,15
2017/12/30 8:52,2.6,16,2.8,15,2.9,16
2017/12/30 8:53,2.4,16,2.6,15,4.8,15
2017/12/30 8:54,2.3,16,2.3,15,5,16
2017/12/30 8:55,2.4,16,2.4,15,6,14
2017/12/30 8:56,2.7,15,2.7,16,7.5,15
2017/12/30 8:57,2.9,15,2.9,16,7.2,15
2017/12/30 8:58,2.9,15,2.9,16,6.4,16
2017/12/30 8:59,3,15,3,16,5.8,16
2017/12/30 9:00,3.1,15,3.1,15,5.6,16
2017/12/30 9:01,3.3,15,3.3,15,5.8,14
2017/12/30 9:02,3.4,15,3.4,15,4.5,16
2017/12/30 9:03,3.6,15,3.6,15,6.9,16
2017/12/30 9:04,3.7,15,3.7,15,7.6,16
2017/12/30 9:05,3.7,15,3.7,15,6,16
2017/12/30 9:06,3.4,16,3.6,15,4.1,1
2017/12/30 9:07,3.3,16,3.4,15,5.2,2
2017/12/30 9:08,3.2,16,3.3,15,1.6,14
2017/12/30 9:09,2.9,16,3.1,15,2.7,16
2017/12/30 9:10,2.8,16,2.9,15,4.3,14
2017/12/30 9:11,2.9,16,2.9,15,7,15
2017/12/30 9:12,2.8,16,2.9,15,6.9,1
2017/12/30 9:13,2.6,16,2.7,15,3.7,16
2017/12/30 9:14,2.5,16,2.5,15,8.9,15
2017/12/30 9:15,2.5,16,2.5,15,4.7,1
2017/12/30 9:16,2.6,15,2.6,16,8.1,14
2017/12/30 9:17,2.9,15,2.9,16,9.5,15
2017/12/30 9:18,3.1,15,3.1,16,5.4,15
2017/12/30 9:19,3.2,15,3.2,15,5.8,16
2017/12/30 9:20,3.3,16,3.3,16,4.4,15
2017/12/30 9:21,3.2,16,3.3,16,6.8,14
2017/12/30 9:22,3.4,15,3.4,15,7.9,16
2017/12/30 9:23,3.7,15,3.7,15,8.3,15
2017/12/30 9:24,3.7,15,3.8,15,7.8,15
2017/12/30 9:25,3.9,15,3.9,15,8.7,15
2017/12/30 9:26,3.9,15,3.9,15,6.8,15
2017/12/30 9:27,3.6,15,3.9,15,6,15
2017/12/30 9:28,3.8,15,3.8,15,7.9,14
2017/12/30 9:29,3.9,15,3.9,15,8.2,16
2017/12/30 9:30,4.2,15,4.2,15,7.8,16
2017/12/30 9:31,4.3,15,4.4,15,6.8,16
2017/12/30 9:32,4.5,15,4.5,15,11.3,16
2017/12/30 9:33,4.5,15,4.6,15,11,15
2017/12/30 9:34,4.7,15,4.7,15,7.9,16
2017/12/30 9:35,4.5,15,4.7,15,5.8,16
2017/12/30 9:36,4.5,15,4.5,15,7.4,15
2017/12/30 9:37,4.8,15,4.8,15,7.5,15
2017/12/30 9:38,5,15,5,15,12.1,15
2017/12/30 9:39,4.9,15,5,15,6.2,16
2017/12/30 9:40,4.7,15,4.9,15,6.2,15
2017/12/30 9:41,4.6,15,4.7,15,6,15
2017/12/30 9:42,4.3,15,4.6,15,7.8,14
2017/12/30 9:43,4.3,15,4.4,15,7.6,16
2017/12/30 9:44,4.2,15,4.2,15,8.3,16
2017/12/30 9:45,4.4,15,4.4,15,9.8,16
2017/12/30 9:46,4.5,15,4.5,15,9.7,16
2017/12/30 9:47,4.5,15,4.5,15,8.9,15
2017/12/30 9:48,4.3,16,4.6,15,9.3,16
2017/12/30 9:49,4.5,16,4.5,15,8.6,16
2017/12/30 9:50,4.7,16,4.7,15,9.4,16
2017/12/30 9:51,5,16,5,16,7.8,16
2017/12/30 9:52,5.3,16,5.3,16,8.7,16
2017/12/30 9:53,5.3,16,5.3,16,8.5,1
2017/12/30 9:54,5.3,16,5.3,16,8.3,1
2017/12/30 9:55,5.2,16,5.3,16,8.1,1
2017/12/30 9:56,4.9,16,5.2,16,5.8,15
2017/12/30 9:57,4.8,16,5,16,6.4,16
2017/12/30 9:58,4.7,16,4.7,16,7.6,15
2017/12/30 9:59,4.6,16,4.7,16,9.2,16
2017/12/30 10:00,4.4,16,4.6,16,8.4,16
2017/12/30 10:01,4.2,16,4.4,16,6.3,1
2017/12/30 10:02,4.1,16,4.2,16,9.1,15
2017/12/30 10:03,4.1,16,4.2,16,7.4,15
2017/12/30 10:04,3.8,16,4.1,16,4.1,2
2017/12/30 10:05,3.7,16,3.8,16,4.1,1
2017/12/30 10:06,3.7,16,3.7,16,6.1,16
2017/12/30 10:07,3.9,16,4,16,10.3,15
2017/12/30 10:08,4.1,16,4.1,16,8.3,16
2017/12/30 10:09,4.2,16,4.2,16,7.6,15
2017/12/30 10:10,4.1,16,4.1,16,7.2,16
2017/12/30 10:11,4.3,16,4.3,16,8.9,16
2017/12/30 10:12,4.2,16,4.3,16,8.9,16
2017/12/30 10:13,4.3,16,4.3,16,11.4,15
2017/12/30 10:14,4.5,16,4.5,16,6.5,15
2017/12/30 10:15,4.4,16,4.5,16,3.9,15
2017/12/30 10:16,4.5,16,4.5,16,7.7,16
2017/12/30 10:17,4.4,16,4.5,16,8.4,16
2017/12/30 10:18,4.3,15,4.4,16,6.9,16
2017/12/30 10:19,4.4,15,4.4,16,9.2,14
2017/12/30 10:20,4.6,15,4.6,15,7.2,15
2017/12/30 10:21,4.4,15,4.6,15,8.2,16
2017/12/30 10:22,4.3,15,4.4,15,6.7,15
2017/12/30 10:23,4.3,15,4.4,15,10.6,16
2017/12/30 10:24,4.6,15,4.6,15,9.9,16
2017/12/30 10:25,4.7,15,4.7,15,7.5,14
2017/12/30 10:26,4.6,15,4.7,15,5,16
2017/12/30 10:27,4.3,15,4.6,15,4.4,16
2017/12/30 10:28,4.2,15,4.3,15,6.4,16
2017/12/30 10:29,4,15,4.2,15,8.1,15
2017/12/30 10:30,3.9,15,4,15,6.7,16
2017/12/30 10:31,3.7,16,3.9,15,7.8,16
2017/12/30 10:32,4.1,15,4.1,15,10.7,15
2017/12/30 10:33,4.1,15,4.1,15,8.6,15
2017/12/30 10:34,4,16,4.2,15,10.8,15
2017/12/30 10:35,4.1,16,4.1,15,9.9,14
2017/12/30 10:36,4.6,15,4.6,15,12.5,16
2017/12/30 10:37,4.7,15,4.7,15,7,16
2017/12/30 10:38,4.7,15,4.8,15,7.1,14
2017/12/30 10:39,5,15,5,15,10.5,15
2017/12/30 10:40,5.5,15,5.5,15,13.3,16
2017/12/30 10:41,5.9,15,5.9,15,9.2,16
2017/12/30 10:42,5.7,15,5.9,15,6.4,15
2017/12/30 10:43,5.7,15,5.8,15,8.9,15
2017/12/30 10:44,5.3,16,5.6,15,6.9,14
2017/12/30 10:45,5.7,15,5.7,15,12.1,14